Sunland Park, NM (88063)

2:04 AM MST on February 22, 2017 (GMT -0700)
River Bend | | Change Station
Active Advisory: Fire Weather Watch

Elev 3737 ft 31.81 °N, 106.57 °W | Updated 10 minutes ago

Clear
Clear
46.3 °F
Feels Like 46 °F
N
0.0
Wind Variable Wind from WSW
Gusts 0.0 mph

Today
High -- | Low -- °F
--% Chance of Precip.
Yesterday
High -- | Low -- °F
Precip. -- in
Pressure 29.98 in
Visibility 10.0 miles
Clouds Clear
Windchill 46 °F
Dew Point 36 °F
Humidity 66%
Rainfall 0.00 in
Snow Depth Not available.
6:40 AM 5:59 PM
Waning Crescent, 19% visible
METAR KELP 220851Z 28008KT 10SM CLR 16/M01 A3013 RMK AO2 SLP152 T01611011 58012
Pressure 29.98 in
Visibility 10.0 miles
Clouds Clear
Windchill 46 °F
Dew Point 36 °F
Humidity 66%
Rainfall 0.00 in
Snow Depth Not available.
6:40 AM 5:59 PM
Waning Crescent, 19% visible
METAR KELP 220851Z 28008KT 10SM CLR 16/M01 A3013 RMK AO2 SLP152 T01611011 58012

Get Your Daily Forecast Email!

Thanks for signing up!

Be on the lookout for a verification email in your inbox.

You'll start receiving the daily forecast at 8 AM.

×

10-Day Weather Forecast

Almanac

Astronomy

Feb. 22, 2017 Rise Set
Actual Time
Civil Twilight
Nautical Twilight
Astronomical Twilight
Moon
Length of Visible Light
Length of Day
Tomorrow will be .
, % of the Moon is Illuminated

Today's Extremes

State Highs State Lows

Community

WunderPhotos

Upload Photos

1,962,540 photos uploaded!

WunderBlog® & News

Nearby

Air Quality

  Air Quality AQ Index Pollutant
Not available.

Snow Depth

Station Depth Elevation

Earthquake Activity

City Distance Mag. Time & Date
Minimum magnitude displayed is 2.5.

Coastal Water Temperatures

Place Temperature

Stations

Nearby Weather Stations

Station Location Temp. Windchill Dew Point Humidity Wind Precip. Elev Updated Type
                   

Watches & Warnings

Fire Weather Watch
Issued: 1:55 PM MST Feb. 21, 2017 – National Weather Service

... Fire Weather Watch remains in effect from Thursday morning
through Thursday evening for strong winds and low relative
humidities for fire weather zones 055, 056, 111, and 112...

* affected area... fire weather zones 111, 112, 055 and 056.

* 20-foot wind... 20 to 30 mph with gusts to 45 mph.

* Humidity... 10 to 15 percent.

* Impacts... any fires that develop will likely spread rapidly.
Outdoor burning is not recommended.

Precautionary/preparedness actions...

A Fire Weather Watch means that critical fire weather conditions
are forecast to occur. Listen for later forecasts and possible
red flag warnings.


26